Luke Air Force Base
KLUF : now visible

Airfield :











YOU CAN JOIN US ON...

 
LOGIN :

Register | Disclaimer

   EN    FR    IT 

 









Legend :    VFR   Marginal VFR   IFR   Intensive IFR   Very Intensive IFR
Visi :
Ceiling :
>= 8 km
>= 3000ft
5 to 8 km
1000 to 3000 ft
1500m to 5 km
500 to 1000 ft
800 to 1500m
200 to 500 ft
< 800m
< 200 ft
Symbols :   Thunderstorms  Fog  Heavy snow  Heavy precipitations  Wind > 20 kt







- Airport Elevation : 1085 ft


KLUF - Luke Air Force Base

CURRENT METAR :
  • 162058Z 25005KT 10SM BKN210 36/13 A2981 RMK AO2A SLP080 T03560125 57025

EXPIRED METARs :
  • 161958Z 09003KT 10SM SCT140 BKN200 35/14 A2986 RMK AO2A SLP097 T03460139
  • 161900Z 13004KT 10SM BKN200 35/14 A2987 RMK SLP100 P0000 T03450144

TAF TAF KLUF
Valid from the 16 at 20:00 until the 18 at 02:00 UTC


162000Z 1620/1802 14006KT 9999 SCT100 BKN200 QNH2982INS
TEMPO 1623/1702 VRB20G30KT 6000 BLDU VCTS SCT070CB BKN250
BECMG 1707/1708 VRB06KT 9999 FEW130 QNH2988INS TX37/1623Z TN27/1713Z
No reported NOTAMs for that airfield.



MET'MAP, your aeronautical weather chart ! - Copyright ORBIFLY December 2007 - Disclaimer

ORBIFLY MET'MAP TEAM :

Programming & Development : Alexandra Zaïnal
Concept & Development : Baudouin d'Aumeries
Co-Development & Prog : Marc-Olivier Méhu
Technical & hardware support : Manuel Goepfert

Contact : metmap@orbifly.com




SOURCES & CREDITS :

   NOAA       Earth
Advisory